Year,Month,Day,Hour,Minute,Value (Times are PST for temperature in C)
2018,08,09,00,00,22.60
2018,08,09,00,01,22.60
2018,08,09,00,02,22.60
2018,08,09,00,03,22.60
2018,08,09,00,04,22.60
2018,08,09,00,05,22.60
2018,08,09,00,06,22.60
2018,08,09,00,07,22.60
2018,08,09,00,08,22.60
2018,08,09,00,09,22.50
2018,08,09,00,10,22.50
2018,08,09,00,11,22.50
2018,08,09,00,12,22.50
2018,08,09,00,13,22.50
2018,08,09,00,14,22.50
2018,08,09,00,15,22.50
2018,08,09,00,16,22.50
2018,08,09,00,17,22.50
2018,08,09,00,18,22.40
2018,08,09,00,19,22.40
2018,08,09,00,20,22.40
2018,08,09,00,21,22.40
2018,08,09,00,22,22.30
2018,08,09,00,23,22.30
2018,08,09,00,24,22.30
2018,08,09,00,25,22.30
2018,08,09,00,26,22.20
2018,08,09,00,27,22.20
2018,08,09,00,28,22.20
2018,08,09,00,29,22.20
2018,08,09,00,30,22.20
2018,08,09,00,31,22.20
2018,08,09,00,32,22.20
2018,08,09,00,33,22.10
2018,08,09,00,34,22.10
2018,08,09,00,35,22.10
2018,08,09,00,36,22.20
2018,08,09,00,37,22.20
2018,08,09,00,38,22.10
2018,08,09,00,39,22.10
2018,08,09,00,40,22.10
2018,08,09,00,41,22.10
2018,08,09,00,42,22.10
2018,08,09,00,43,22.10
2018,08,09,00,44,22.10
2018,08,09,00,45,22.10
2018,08,09,00,46,22.10
2018,08,09,00,47,22.00
2018,08,09,00,48,22.00
2018,08,09,00,49,22.00
2018,08,09,00,50,22.00
2018,08,09,00,51,22.00
2018,08,09,00,52,21.90
2018,08,09,00,53,21.90
2018,08,09,00,54,21.90
2018,08,09,00,55,21.90
2018,08,09,00,56,21.80
2018,08,09,00,57,21.80
2018,08,09,00,58,21.80
2018,08,09,00,59,21.80
2018,08,09,01,00,21.80
2018,08,09,01,01,21.80
2018,08,09,01,02,21.80
2018,08,09,01,03,21.80
2018,08,09,01,04,21.70
2018,08,09,01,05,21.70
2018,08,09,01,06,21.70
2018,08,09,01,07,21.70
2018,08,09,01,08,21.70
2018,08,09,01,09,21.70
2018,08,09,01,10,21.70
2018,08,09,01,11,21.60
2018,08,09,01,12,21.60
2018,08,09,01,13,21.60
2018,08,09,01,14,21.60
2018,08,09,01,15,21.60
2018,08,09,01,16,21.60
2018,08,09,01,17,21.50
2018,08,09,01,18,21.50
2018,08,09,01,19,21.50
2018,08,09,01,20,21.50
2018,08,09,01,21,21.40
2018,08,09,01,22,21.40
2018,08,09,01,23,21.40
2018,08,09,01,24,21.40
2018,08,09,01,25,21.40
2018,08,09,01,26,21.40
2018,08,09,01,27,21.40
2018,08,09,01,28,21.40
2018,08,09,01,29,21.30
2018,08,09,01,30,21.30
2018,08,09,01,31,21.30
2018,08,09,01,32,21.30
2018,08,09,01,33,21.30
2018,08,09,01,34,21.30
2018,08,09,01,35,21.30
2018,08,09,01,36,21.30
2018,08,09,01,37,21.30
2018,08,09,01,38,21.30
2018,08,09,01,39,21.30
2018,08,09,01,40,21.30
2018,08,09,01,41,21.30
2018,08,09,01,42,21.30
2018,08,09,01,43,21.20
2018,08,09,01,44,21.20
2018,08,09,01,45,21.20
2018,08,09,01,46,21.20
2018,08,09,01,47,21.20
2018,08,09,01,48,21.20
2018,08,09,01,49,21.20
2018,08,09,01,50,21.20
2018,08,09,01,51,21.20
2018,08,09,01,52,21.20
2018,08,09,01,53,21.20
2018,08,09,01,54,21.20
2018,08,09,01,55,21.20
2018,08,09,01,56,21.20
2018,08,09,01,57,21.20
2018,08,09,01,58,21.20
2018,08,09,01,59,21.20
2018,08,09,02,00,21.10
2018,08,09,02,01,21.10
2018,08,09,02,02,21.10
2018,08,09,02,03,21.10
2018,08,09,02,04,21.00
2018,08,09,02,05,21.00
2018,08,09,02,06,21.00
2018,08,09,02,07,21.00
2018,08,09,02,08,20.90
2018,08,09,02,09,20.90
2018,08,09,02,10,20.90
2018,08,09,02,11,20.90
2018,08,09,02,12,20.90
2018,08,09,02,13,20.80
2018,08,09,02,14,20.80
2018,08,09,02,15,20.80
2018,08,09,02,16,20.80
2018,08,09,02,17,20.80
2018,08,09,02,18,20.80
2018,08,09,02,19,20.80
2018,08,09,02,20,20.80
2018,08,09,02,21,20.80
2018,08,09,02,22,20.80
2018,08,09,02,23,20.70
2018,08,09,02,24,20.70
2018,08,09,02,25,20.70
2018,08,09,02,26,20.60
2018,08,09,02,27,20.60
2018,08,09,02,28,20.60
2018,08,09,02,29,20.50
2018,08,09,02,30,20.50
2018,08,09,02,31,20.40
2018,08,09,02,32,20.40
2018,08,09,02,33,20.40
2018,08,09,02,34,20.40
2018,08,09,02,35,20.40
2018,08,09,02,36,20.30
2018,08,09,02,37,20.30
2018,08,09,02,38,20.30
2018,08,09,02,39,20.30
2018,08,09,02,40,20.30
2018,08,09,02,41,20.30
2018,08,09,02,42,20.30
2018,08,09,02,43,20.30
2018,08,09,02,44,20.30
2018,08,09,02,45,20.30
2018,08,09,02,46,20.30
2018,08,09,02,47,20.30
2018,08,09,02,48,20.30
2018,08,09,02,49,20.30
2018,08,09,02,50,20.30
2018,08,09,02,51,20.30
2018,08,09,02,52,20.30
2018,08,09,02,53,20.30
2018,08,09,02,54,20.30
2018,08,09,02,55,20.30
2018,08,09,02,56,20.20
2018,08,09,02,57,20.20
2018,08,09,02,58,20.20
2018,08,09,02,59,20.20
2018,08,09,03,00,20.20
2018,08,09,03,01,20.20
2018,08,09,03,02,20.20
2018,08,09,03,03,20.20
2018,08,09,03,04,20.20
2018,08,09,03,05,20.20
2018,08,09,03,06,20.20
2018,08,09,03,07,20.20
2018,08,09,03,08,20.10
2018,08,09,03,09,20.10
2018,08,09,03,10,20.10
2018,08,09,03,11,20.10
2018,08,09,03,12,20.10
2018,08,09,03,13,20.00
2018,08,09,03,14,20.00
2018,08,09,03,15,19.90
2018,08,09,03,16,19.90
2018,08,09,03,17,19.90
2018,08,09,03,18,19.80
2018,08,09,03,19,19.80
2018,08,09,03,20,19.80
2018,08,09,03,21,19.70
2018,08,09,03,22,19.70
2018,08,09,03,23,19.70
2018,08,09,03,24,19.60
2018,08,09,03,25,19.60
2018,08,09,03,26,19.60
2018,08,09,03,27,19.60
2018,08,09,03,28,19.50
2018,08,09,03,29,19.50
2018,08,09,03,30,19.50
2018,08,09,03,31,19.40
2018,08,09,03,32,19.40
2018,08,09,03,33,19.40
2018,08,09,03,34,19.40
2018,08,09,03,35,19.40
2018,08,09,03,36,19.40
2018,08,09,03,37,19.30
2018,08,09,03,38,19.30
2018,08,09,03,39,19.30
2018,08,09,03,40,19.30
2018,08,09,03,41,19.30
2018,08,09,03,42,19.20
2018,08,09,03,43,19.20
2018,08,09,03,44,19.20
2018,08,09,03,45,19.20
2018,08,09,03,46,19.20
2018,08,09,03,47,19.20
2018,08,09,03,48,19.10
2018,08,09,03,49,19.10
2018,08,09,03,50,19.10
2018,08,09,03,51,19.00
2018,08,09,03,52,19.00
2018,08,09,03,53,19.00
2018,08,09,03,54,18.90
2018,08,09,03,55,18.90
2018,08,09,03,56,18.80
2018,08,09,03,57,18.80
2018,08,09,03,58,18.70
2018,08,09,03,59,18.70
2018,08,09,04,00,18.70
2018,08,09,04,01,18.60
2018,08,09,04,02,18.60
2018,08,09,04,03,18.50
2018,08,09,04,04,18.50
2018,08,09,04,05,18.40
2018,08,09,04,06,18.40
2018,08,09,04,07,18.40
2018,08,09,04,08,18.40
2018,08,09,04,09,18.30
2018,08,09,04,10,18.30
2018,08,09,04,11,18.30
2018,08,09,04,12,18.30
2018,08,09,04,13,18.20
2018,08,09,04,14,18.20
2018,08,09,04,15,18.20
2018,08,09,04,16,18.20
2018,08,09,04,17,18.20
2018,08,09,04,18,18.20
2018,08,09,04,19,18.20
2018,08,09,04,20,18.20
2018,08,09,04,21,18.10
2018,08,09,04,22,18.10
2018,08,09,04,23,18.10
2018,08,09,04,24,18.10
2018,08,09,04,25,18.10
2018,08,09,04,26,18.10
2018,08,09,04,27,18.10
2018,08,09,04,28,18.10
2018,08,09,04,29,18.10
2018,08,09,04,30,18.10
2018,08,09,04,31,18.10
2018,08,09,04,32,18.10
2018,08,09,04,33,18.10
2018,08,09,04,34,18.20
2018,08,09,04,35,18.20
2018,08,09,04,36,18.20
2018,08,09,04,37,18.20
2018,08,09,04,38,18.20
2018,08,09,04,39,18.20
2018,08,09,04,40,18.20
2018,08,09,04,41,18.20
2018,08,09,04,42,18.20
2018,08,09,04,43,18.20
2018,08,09,04,44,18.20
2018,08,09,04,45,18.20
2018,08,09,04,46,18.20
2018,08,09,04,47,18.20
2018,08,09,04,48,18.20
2018,08,09,04,49,18.10
2018,08,09,04,50,18.10
2018,08,09,04,51,18.10
2018,08,09,04,52,18.10
2018,08,09,04,53,18.10
2018,08,09,04,54,18.10
2018,08,09,04,55,18.10
2018,08,09,04,56,18.00
2018,08,09,04,57,18.00
2018,08,09,04,58,18.00
2018,08,09,04,59,18.00
2018,08,09,05,00,18.00
2018,08,09,05,01,18.00
2018,08,09,05,02,18.00
2018,08,09,05,03,18.00
2018,08,09,05,04,18.00
2018,08,09,05,05,17.90
2018,08,09,05,06,17.90
2018,08,09,05,07,17.90
2018,08,09,05,08,17.90
2018,08,09,05,09,17.90
2018,08,09,05,10,17.90
2018,08,09,05,11,17.90
2018,08,09,05,12,17.90
2018,08,09,05,13,17.90
2018,08,09,05,14,17.90
2018,08,09,05,15,17.90
2018,08,09,05,16,17.90
2018,08,09,05,17,17.80
2018,08,09,05,18,17.80
2018,08,09,05,19,17.80
2018,08,09,05,20,17.80
2018,08,09,05,21,17.80
2018,08,09,05,22,17.80
2018,08,09,05,23,17.70
2018,08,09,05,24,17.70
2018,08,09,05,25,17.70
2018,08,09,05,26,17.70
2018,08,09,05,27,17.70
2018,08,09,05,28,17.60
2018,08,09,05,29,17.60
2018,08,09,05,30,17.60
2018,08,09,05,31,17.60
2018,08,09,05,32,17.60
2018,08,09,05,33,17.50
2018,08,09,05,34,17.50
2018,08,09,05,35,17.50
2018,08,09,05,36,17.50
2018,08,09,05,37,17.50
2018,08,09,05,38,17.50
2018,08,09,05,39,17.50
2018,08,09,05,40,17.50
2018,08,09,05,41,17.50
2018,08,09,05,42,17.50
2018,08,09,05,43,17.40
2018,08,09,05,44,17.40
2018,08,09,05,45,17.40
2018,08,09,05,46,17.30
2018,08,09,05,47,17.30
2018,08,09,05,48,17.30
2018,08,09,05,49,17.30
2018,08,09,05,50,17.20
2018,08,09,05,51,17.20
2018,08,09,05,52,17.20
2018,08,09,05,53,17.20
2018,08,09,05,54,17.20
2018,08,09,05,55,17.10
2018,08,09,05,56,17.10
2018,08,09,05,57,17.10
2018,08,09,05,58,17.10
2018,08,09,05,59,17.10
2018,08,09,06,00,17.10
2018,08,09,06,01,17.10
2018,08,09,06,02,17.10
2018,08,09,06,03,17.10
2018,08,09,06,04,17.10
2018,08,09,06,05,17.10
2018,08,09,06,06,17.00
2018,08,09,06,07,17.00
2018,08,09,06,08,17.00
2018,08,09,06,09,16.90
2018,08,09,06,10,16.90
2018,08,09,06,11,16.90
2018,08,09,06,12,16.80
2018,08,09,06,13,16.80
2018,08,09,06,14,16.80
2018,08,09,06,15,16.80
2018,08,09,06,16,16.80
2018,08,09,06,17,16.70
2018,08,09,06,18,16.70
2018,08,09,06,19,16.70
2018,08,09,06,20,16.70
2018,08,09,06,21,16.70
2018,08,09,06,22,16.70
2018,08,09,06,23,16.70
2018,08,09,06,24,16.70
2018,08,09,06,25,16.70
2018,08,09,06,26,16.70
2018,08,09,06,27,16.70
2018,08,09,06,28,16.70
2018,08,09,06,29,16.70
2018,08,09,06,30,16.80
2018,08,09,06,31,16.80
2018,08,09,06,32,16.80
2018,08,09,06,33,16.80
2018,08,09,06,34,16.80
2018,08,09,06,35,16.80
2018,08,09,06,36,16.80
2018,08,09,06,37,16.90
2018,08,09,06,38,16.90
2018,08,09,06,39,16.90
2018,08,09,06,40,16.90
2018,08,09,06,41,16.90
2018,08,09,06,42,16.90
2018,08,09,06,43,16.90
2018,08,09,06,44,16.90
2018,08,09,06,45,16.90
2018,08,09,06,46,16.90
2018,08,09,06,47,16.90
2018,08,09,06,48,16.90
2018,08,09,06,49,16.80
2018,08,09,06,50,16.80
2018,08,09,06,51,16.80
2018,08,09,06,52,16.80
2018,08,09,06,53,16.90
2018,08,09,06,54,16.90
2018,08,09,06,55,16.90
2018,08,09,06,56,16.90
2018,08,09,06,57,17.00
2018,08,09,06,58,17.00
2018,08,09,06,59,17.10
2018,08,09,07,00,17.10
2018,08,09,07,01,17.10
2018,08,09,07,02,17.10
2018,08,09,07,03,17.10
2018,08,09,07,04,17.10
2018,08,09,07,05,17.10
2018,08,09,07,06,17.10
2018,08,09,07,07,17.20
2018,08,09,07,08,17.20
2018,08,09,07,09,17.20
2018,08,09,07,10,17.20
2018,08,09,07,11,17.20
2018,08,09,07,12,17.30
2018,08,09,07,13,17.30
2018,08,09,07,14,17.40
2018,08,09,07,15,17.50
2018,08,09,07,16,17.60
2018,08,09,07,17,17.60
2018,08,09,07,18,17.70
2018,08,09,07,19,17.80
2018,08,09,07,20,17.90
2018,08,09,07,21,17.90
2018,08,09,07,22,18.00
2018,08,09,07,23,18.10
2018,08,09,07,24,18.10
2018,08,09,07,25,18.20
2018,08,09,07,26,18.20
2018,08,09,07,27,18.20
2018,08,09,07,28,18.30
2018,08,09,07,29,18.30
2018,08,09,07,30,18.30
2018,08,09,07,31,18.30
2018,08,09,07,32,18.30
2018,08,09,07,33,18.30
2018,08,09,07,34,18.30
2018,08,09,07,35,18.40
2018,08,09,07,36,18.40
2018,08,09,07,37,18.50
2018,08,09,07,38,18.50
2018,08,09,07,39,18.50
2018,08,09,07,40,18.60
2018,08,09,07,41,18.60
2018,08,09,07,42,18.60
2018,08,09,07,43,18.60
2018,08,09,07,44,18.60
2018,08,09,07,45,18.60
2018,08,09,07,46,18.70
2018,08,09,07,47,18.70
2018,08,09,07,48,18.70
2018,08,09,07,49,18.70
2018,08,09,07,50,18.70
2018,08,09,07,51,18.70
2018,08,09,07,52,18.70
2018,08,09,07,53,18.70
2018,08,09,07,54,18.70
2018,08,09,07,55,18.80
2018,08,09,07,56,18.80
2018,08,09,07,57,18.80
2018,08,09,07,58,18.80
2018,08,09,07,59,18.80
2018,08,09,08,00,18.80
2018,08,09,08,01,18.80
2018,08,09,08,02,18.90
2018,08,09,08,03,18.90
2018,08,09,08,04,18.90
2018,08,09,08,05,19.00
2018,08,09,08,06,19.00
2018,08,09,08,07,19.10
2018,08,09,08,08,19.10
2018,08,09,08,09,19.10
2018,08,09,08,10,19.10
2018,08,09,08,11,19.20
2018,08,09,08,12,19.20
2018,08,09,08,13,19.20
2018,08,09,08,14,19.20
2018,08,09,08,15,19.30
2018,08,09,08,16,19.30
2018,08,09,08,17,19.30
2018,08,09,08,18,19.30
2018,08,09,08,19,19.30
2018,08,09,08,20,19.30
2018,08,09,08,21,19.30
2018,08,09,08,22,19.30
2018,08,09,08,23,19.30
2018,08,09,08,24,19.30
2018,08,09,08,25,19.30
2018,08,09,08,26,19.30
2018,08,09,08,27,19.30
2018,08,09,08,28,19.40
2018,08,09,08,29,19.40
2018,08,09,08,30,19.50
2018,08,09,08,31,19.50
2018,08,09,08,32,19.60
2018,08,09,08,33,19.60
2018,08,09,08,34,19.60
2018,08,09,08,35,19.60
2018,08,09,08,36,19.60
2018,08,09,08,37,19.60
2018,08,09,08,38,19.70
2018,08,09,08,39,19.70
2018,08,09,08,40,19.70
2018,08,09,08,41,19.70
2018,08,09,08,42,19.70
2018,08,09,08,43,19.70
2018,08,09,08,44,19.70
2018,08,09,08,45,19.70
2018,08,09,08,46,19.70
2018,08,09,08,47,19.80
2018,08,09,08,48,19.80
2018,08,09,08,49,19.80
2018,08,09,08,50,19.80
2018,08,09,08,51,19.90
2018,08,09,08,52,20.00
2018,08,09,08,53,20.00
2018,08,09,08,54,20.00
2018,08,09,08,55,20.10
2018,08,09,08,56,20.10
2018,08,09,08,57,20.10
2018,08,09,08,58,20.10
2018,08,09,08,59,20.10
2018,08,09,09,00,20.20
2018,08,09,09,01,20.20
2018,08,09,09,02,20.30
2018,08,09,09,03,20.30
2018,08,09,09,04,20.40
2018,08,09,09,05,20.40
2018,08,09,09,06,20.40
2018,08,09,09,07,20.50
2018,08,09,09,08,20.60
2018,08,09,09,09,20.60
2018,08,09,09,10,20.60
2018,08,09,09,11,20.70
2018,08,09,09,12,20.80
2018,08,09,09,13,20.80
2018,08,09,09,14,20.80
2018,08,09,09,15,20.80
2018,08,09,09,16,20.90
2018,08,09,09,17,20.80
2018,08,09,09,18,20.90
2018,08,09,09,19,20.90
2018,08,09,09,20,20.90
2018,08,09,09,21,21.00
2018,08,09,09,22,21.10
2018,08,09,09,23,21.20
2018,08,09,09,24,21.20
2018,08,09,09,25,21.30
2018,08,09,09,26,21.30
2018,08,09,09,27,21.30
2018,08,09,09,28,21.30
2018,08,09,09,29,21.40
2018,08,09,09,30,21.40
2018,08,09,09,31,21.40
2018,08,09,09,32,21.50
2018,08,09,09,33,21.50
2018,08,09,09,34,21.60
2018,08,09,09,35,21.60
2018,08,09,09,36,21.70
2018,08,09,09,37,21.70
2018,08,09,09,38,21.70
2018,08,09,09,39,21.70
2018,08,09,09,40,21.70
2018,08,09,09,41,21.80
2018,08,09,09,42,21.70
2018,08,09,09,43,21.70
2018,08,09,09,44,21.70
2018,08,09,09,45,21.70
2018,08,09,09,46,21.70
2018,08,09,09,47,21.60
2018,08,09,09,48,21.60
2018,08,09,09,49,21.60
2018,08,09,09,50,21.60
2018,08,09,09,51,21.60
2018,08,09,09,52,21.70
2018,08,09,09,53,21.70
2018,08,09,09,54,21.80
2018,08,09,09,55,21.80
2018,08,09,09,56,21.80
2018,08,09,09,57,21.80
2018,08,09,09,58,21.90
2018,08,09,09,59,21.90
2018,08,09,10,00,22.00
2018,08,09,10,01,22.00
2018,08,09,10,02,22.10
2018,08,09,10,03,22.10
2018,08,09,10,04,22.10
2018,08,09,10,05,22.20
2018,08,09,10,06,22.20
2018,08,09,10,07,22.30
2018,08,09,10,08,22.30
2018,08,09,10,09,22.40
2018,08,09,10,10,22.50
2018,08,09,10,11,22.60
2018,08,09,10,12,22.70
2018,08,09,10,13,22.80
2018,08,09,10,14,22.90
2018,08,09,10,15,23.00
2018,08,09,10,16,23.00
2018,08,09,10,17,23.00
2018,08,09,10,18,23.00
2018,08,09,10,19,23.10
2018,08,09,10,20,23.10
2018,08,09,10,21,23.20
2018,08,09,10,22,23.20
2018,08,09,10,23,23.30
2018,08,09,10,24,23.40
2018,08,09,10,25,23.50
2018,08,09,10,26,23.60
2018,08,09,10,27,23.70
2018,08,09,10,28,23.80
2018,08,09,10,29,23.80
2018,08,09,10,30,23.90
2018,08,09,10,31,24.00
2018,08,09,10,32,24.10
2018,08,09,10,33,24.10
2018,08,09,10,34,24.20
2018,08,09,10,35,24.20
2018,08,09,10,36,24.30
2018,08,09,10,37,24.30
2018,08,09,10,38,24.40
2018,08,09,10,39,24.40
2018,08,09,10,40,24.50
2018,08,09,10,41,24.60
2018,08,09,10,42,24.60
2018,08,09,10,43,24.60
2018,08,09,10,44,24.60
2018,08,09,10,45,24.70
2018,08,09,10,46,24.70
2018,08,09,10,47,24.70
2018,08,09,10,48,24.70
2018,08,09,10,49,24.80
2018,08,09,10,50,24.80
2018,08,09,10,51,24.80
2018,08,09,10,52,24.90
2018,08,09,10,53,24.90
2018,08,09,10,54,24.90
2018,08,09,10,55,24.90
2018,08,09,10,56,24.90
2018,08,09,10,57,25.00
2018,08,09,10,58,25.00
2018,08,09,10,59,25.00
2018,08,09,11,00,25.10
2018,08,09,11,01,25.10
2018,08,09,11,02,25.20
2018,08,09,11,03,25.30
2018,08,09,11,04,25.40
2018,08,09,11,05,25.50
2018,08,09,11,06,25.50
2018,08,09,11,07,25.60
2018,08,09,11,08,25.60
2018,08,09,11,09,25.60
2018,08,09,11,10,25.60
2018,08,09,11,11,25.60
2018,08,09,11,12,25.60
2018,08,09,11,13,25.70
2018,08,09,11,14,25.70
2018,08,09,11,15,25.70
2018,08,09,11,16,25.80
2018,08,09,11,17,25.80
2018,08,09,11,18,25.90
2018,08,09,11,19,26.00
2018,08,09,11,20,26.00
2018,08,09,11,21,26.00
2018,08,09,11,22,26.00
2018,08,09,11,23,25.90
2018,08,09,11,24,25.90
2018,08,09,11,25,25.80
2018,08,09,11,26,25.70
2018,08,09,11,27,25.70
2018,08,09,11,28,25.70
2018,08,09,11,29,25.70
2018,08,09,11,30,25.70
2018,08,09,11,31,25.70
2018,08,09,11,32,25.60
2018,08,09,11,33,25.50
2018,08,09,11,34,25.50
2018,08,09,11,35,25.40
2018,08,09,11,36,25.30
2018,08,09,11,37,25.30
2018,08,09,11,38,25.30
2018,08,09,11,39,25.30
2018,08,09,11,40,25.30
2018,08,09,11,41,25.30
2018,08,09,11,42,25.30
2018,08,09,11,43,25.30
2018,08,09,11,44,25.40
2018,08,09,11,45,25.50
2018,08,09,11,46,25.60
2018,08,09,11,47,25.70
2018,08,09,11,48,25.80
2018,08,09,11,49,25.80
2018,08,09,11,50,25.90
2018,08,09,11,51,25.90
2018,08,09,11,52,26.00
2018,08,09,11,53,26.10
2018,08,09,11,54,26.10
2018,08,09,11,55,26.10
2018,08,09,11,56,26.10
2018,08,09,11,57,26.10
2018,08,09,11,58,26.10
2018,08,09,11,59,26.10
2018,08,09,12,00,26.10
2018,08,09,12,01,26.20
2018,08,09,12,02,26.20
2018,08,09,12,03,26.20
2018,08,09,12,04,26.20
2018,08,09,12,05,26.30
2018,08,09,12,06,26.30
2018,08,09,12,07,26.30
2018,08,09,12,08,26.30
2018,08,09,12,09,26.40
2018,08,09,12,10,26.40
2018,08,09,12,11,26.40
2018,08,09,12,12,26.40
2018,08,09,12,13,26.50
2018,08,09,12,14,26.50
2018,08,09,12,15,26.60
2018,08,09,12,16,26.70
2018,08,09,12,17,26.80
2018,08,09,12,18,26.80
2018,08,09,12,19,26.80
2018,08,09,12,20,26.80
2018,08,09,12,21,26.80
2018,08,09,12,22,26.90
2018,08,09,12,23,26.90
2018,08,09,12,24,26.90
2018,08,09,12,25,26.80
2018,08,09,12,26,26.80
2018,08,09,12,27,26.80
2018,08,09,12,28,26.80
2018,08,09,12,29,26.80
2018,08,09,12,30,26.90
2018,08,09,12,31,26.90
2018,08,09,12,32,27.00
2018,08,09,12,33,27.00
2018,08,09,12,34,27.10
2018,08,09,12,35,27.20
2018,08,09,12,36,27.20
2018,08,09,12,37,27.30
2018,08,09,12,38,27.40
2018,08,09,12,39,27.40
2018,08,09,12,40,27.50
2018,08,09,12,41,27.50
2018,08,09,12,42,27.50
2018,08,09,12,43,27.60
2018,08,09,12,44,27.70
2018,08,09,12,45,27.70
2018,08,09,12,46,27.70
2018,08,09,12,47,27.60
2018,08,09,12,48,27.60
2018,08,09,12,49,27.60
2018,08,09,12,50,27.60
2018,08,09,12,51,27.60
2018,08,09,12,52,27.60
2018,08,09,12,53,27.60
2018,08,09,12,54,27.60
2018,08,09,12,55,27.60
2018,08,09,12,56,27.50
2018,08,09,12,57,27.50
2018,08,09,12,58,27.40
2018,08,09,12,59,27.40
2018,08,09,13,00,27.40
2018,08,09,13,01,27.30
2018,08,09,13,02,27.30
2018,08,09,13,03,27.20
2018,08,09,13,04,27.20
2018,08,09,13,05,27.20
2018,08,09,13,06,27.20
2018,08,09,13,07,27.20
2018,08,09,13,08,27.20
2018,08,09,13,09,27.10
2018,08,09,13,10,27.10
2018,08,09,13,11,27.00
2018,08,09,13,12,27.00
2018,08,09,13,13,26.90
2018,08,09,13,14,26.90
2018,08,09,13,15,26.90
2018,08,09,13,16,26.90
2018,08,09,13,17,26.90
2018,08,09,13,18,26.90
2018,08,09,13,19,26.90
2018,08,09,13,20,26.90
2018,08,09,13,21,26.90
2018,08,09,13,22,26.90
2018,08,09,13,23,26.90
2018,08,09,13,24,26.90
2018,08,09,13,25,27.00
2018,08,09,13,26,27.00
2018,08,09,13,27,27.00
2018,08,09,13,28,26.90
2018,08,09,13,29,26.80
2018,08,09,13,30,26.80
2018,08,09,13,31,26.70
2018,08,09,13,32,26.70
2018,08,09,13,33,26.70
2018,08,09,13,34,26.70
2018,08,09,13,35,26.70
2018,08,09,13,36,26.80
2018,08,09,13,37,26.80
2018,08,09,13,38,26.90
2018,08,09,13,39,27.10
2018,08,09,13,40,27.20
2018,08,09,13,41,27.30
2018,08,09,13,42,27.40
2018,08,09,13,43,27.50
2018,08,09,13,44,27.60
2018,08,09,13,45,27.70
2018,08,09,13,46,27.80
2018,08,09,13,47,27.90
2018,08,09,13,48,28.00
2018,08,09,13,49,28.10
2018,08,09,13,50,28.10
2018,08,09,13,51,28.20
2018,08,09,13,52,28.30
2018,08,09,13,53,28.30
2018,08,09,13,54,28.40
2018,08,09,13,55,28.40
2018,08,09,13,56,28.40
2018,08,09,13,57,28.50
2018,08,09,13,58,28.50
2018,08,09,13,59,28.50
2018,08,09,14,00,28.50
2018,08,09,14,01,28.50
2018,08,09,14,02,28.40
2018,08,09,14,03,28.40
2018,08,09,14,04,28.30
2018,08,09,14,05,28.30
2018,08,09,14,06,28.10
2018,08,09,14,07,28.00
2018,08,09,14,08,27.90
2018,08,09,14,09,27.80
2018,08,09,14,10,27.90
2018,08,09,14,11,27.90
2018,08,09,14,12,28.00
2018,08,09,14,13,28.00
2018,08,09,14,14,28.10
2018,08,09,14,15,28.10
2018,08,09,14,16,28.20
2018,08,09,14,17,28.20
2018,08,09,14,18,28.20
2018,08,09,14,19,28.20
2018,08,09,14,20,28.20
2018,08,09,14,21,28.20
2018,08,09,14,22,28.20
2018,08,09,14,23,28.20
2018,08,09,14,24,28.20
2018,08,09,14,25,28.10
2018,08,09,14,26,28.10
2018,08,09,14,27,28.10
2018,08,09,14,28,28.10
2018,08,09,14,29,28.10
2018,08,09,14,30,28.10
2018,08,09,14,31,28.10
2018,08,09,14,32,28.20
2018,08,09,14,33,28.20
2018,08,09,14,34,28.20
2018,08,09,14,35,28.20
2018,08,09,14,36,28.30
2018,08,09,14,37,28.30
2018,08,09,14,38,28.30
2018,08,09,14,39,28.20
2018,08,09,14,40,28.20
2018,08,09,14,41,28.10
2018,08,09,14,42,28.10
2018,08,09,14,43,28.00
2018,08,09,14,44,28.00
2018,08,09,14,45,27.90
2018,08,09,14,46,27.90
2018,08,09,14,47,27.90
2018,08,09,14,48,27.90
2018,08,09,14,49,28.00
2018,08,09,14,50,28.00
2018,08,09,14,51,28.10
2018,08,09,14,52,28.10
2018,08,09,14,53,28.20
2018,08,09,14,54,28.20
2018,08,09,14,55,28.10
2018,08,09,14,56,28.10
2018,08,09,14,57,28.10
2018,08,09,14,58,28.00
2018,08,09,14,59,28.10
2018,08,09,15,00,28.00
2018,08,09,15,01,28.00
2018,08,09,15,02,27.90
2018,08,09,15,03,27.80
2018,08,09,15,04,27.80
2018,08,09,15,05,27.80
2018,08,09,15,06,27.80
2018,08,09,15,07,27.70
2018,08,09,15,08,27.70
2018,08,09,15,09,27.60
2018,08,09,15,10,27.60
2018,08,09,15,11,27.50
2018,08,09,15,12,27.50
2018,08,09,15,13,27.50
2018,08,09,15,14,27.60
2018,08,09,15,15,27.60
2018,08,09,15,16,27.60
2018,08,09,15,17,27.60
2018,08,09,15,18,27.70
2018,08,09,15,19,27.70
2018,08,09,15,20,27.80
2018,08,09,15,21,27.80
2018,08,09,15,22,27.90
2018,08,09,15,23,27.90
2018,08,09,15,24,28.00
2018,08,09,15,25,28.10
2018,08,09,15,26,28.10
2018,08,09,15,27,28.10
2018,08,09,15,28,28.10
2018,08,09,15,29,28.00
2018,08,09,15,30,28.00
2018,08,09,15,31,27.90
2018,08,09,15,32,27.80
2018,08,09,15,33,27.70
2018,08,09,15,34,27.60
2018,08,09,15,35,27.60
2018,08,09,15,36,27.60
2018,08,09,15,37,27.60
2018,08,09,15,38,27.60
2018,08,09,15,39,27.60
2018,08,09,15,40,27.60
2018,08,09,15,41,27.60
2018,08,09,15,42,27.60
2018,08,09,15,43,27.70
2018,08,09,15,44,27.70
2018,08,09,15,45,27.80
2018,08,09,15,46,27.90
2018,08,09,15,47,28.00
2018,08,09,15,48,28.00
2018,08,09,15,49,28.00
2018,08,09,15,50,28.00
2018,08,09,15,51,28.00
2018,08,09,15,52,28.10
2018,08,09,15,53,28.10
2018,08,09,15,54,28.10
2018,08,09,15,55,28.10
2018,08,09,15,56,28.20
2018,08,09,15,57,28.30
2018,08,09,15,58,28.30
2018,08,09,15,59,28.20
2018,08,09,16,00,28.20
2018,08,09,16,01,28.00
2018,08,09,16,02,27.90
2018,08,09,16,03,27.80
2018,08,09,16,04,27.70
2018,08,09,16,05,27.60
2018,08,09,16,06,27.60
2018,08,09,16,07,27.60
2018,08,09,16,08,27.60
2018,08,09,16,09,27.60
2018,08,09,16,10,27.50
2018,08,09,16,11,27.50
2018,08,09,16,12,27.50
2018,08,09,16,13,27.50
2018,08,09,16,14,27.50
2018,08,09,16,15,27.50
2018,08,09,16,16,27.50
2018,08,09,16,17,27.50
2018,08,09,16,18,27.60
2018,08,09,16,19,27.60
2018,08,09,16,20,27.60
2018,08,09,16,21,27.70
2018,08,09,16,22,27.70
2018,08,09,16,23,27.70
2018,08,09,16,24,27.70
2018,08,09,16,25,27.70
2018,08,09,16,26,27.70
2018,08,09,16,27,27.70
2018,08,09,16,28,27.70
2018,08,09,16,29,27.70
2018,08,09,16,30,27.80
2018,08,09,16,31,27.80
2018,08,09,16,32,27.80
2018,08,09,16,33,27.80
2018,08,09,16,34,27.80
2018,08,09,16,35,27.80
2018,08,09,16,36,27.80
2018,08,09,16,37,27.80
2018,08,09,16,38,27.80
2018,08,09,16,39,27.80
2018,08,09,16,40,27.80
2018,08,09,16,41,27.80
2018,08,09,16,42,27.80
2018,08,09,16,43,27.80
2018,08,09,16,44,27.90
2018,08,09,16,45,27.90
2018,08,09,16,46,27.90
2018,08,09,16,47,27.90
2018,08,09,16,48,27.90
2018,08,09,16,49,27.80
2018,08,09,16,50,27.70
2018,08,09,16,51,27.70
2018,08,09,16,52,27.60
2018,08,09,16,53,27.60
2018,08,09,16,54,27.60
2018,08,09,16,55,27.70
2018,08,09,16,56,27.70
2018,08,09,16,57,27.70
2018,08,09,16,58,27.70
2018,08,09,16,59,27.70
2018,08,09,17,00,27.70
2018,08,09,17,01,27.70
2018,08,09,17,02,27.80
2018,08,09,17,03,27.80
2018,08,09,17,04,27.80
2018,08,09,17,05,27.80
2018,08,09,17,06,27.80
2018,08,09,17,07,27.80
2018,08,09,17,08,27.80
2018,08,09,17,09,27.90
2018,08,09,17,10,27.90
2018,08,09,17,11,27.90
2018,08,09,17,12,27.90
2018,08,09,17,13,28.00
2018,08,09,17,14,28.00
2018,08,09,17,15,28.00
2018,08,09,17,16,28.10
2018,08,09,17,17,28.10
2018,08,09,17,18,28.10
2018,08,09,17,19,28.10